Rutland, VT

12:34 AM EDT on July 26, 2017 (GMT -0400)
Rutland State

Weather History for KRUT - December, 2013

Change the Weather History Date:

Tuesday, December 3, 2013

  Actual Average Record
Temperature  
Mean Temperature 34 °F -  
Max Temperature 41 °F - 56 °F (1962)
Min Temperature 27 °F - -6 °F (1976)
Degree Days  
Heating Degree Days 31    
Month to date heating degree days 94  
Since 1 July heating degree days 1814  
Cooling Degree Days 0    
Month to date cooling degree days 0  
Year to date cooling degree days 449  
Moisture  
Dew Point 30 °F    
Average Humidity 85    
Maximum Humidity 100    
Minimum Humidity 70    
Precipitation  
Precipitation 0.00 in - 0.79 in (1986)
Month to date precipitation 0.00  
Year to date precipitation 23.49  
Sea Level Pressure  
Sea Level Pressure 29.92 in    
Wind  
Wind Speed 4 mph (NE)    
Max Wind Speed 8 mph    
Max Gust Speed -    
Visibility 9 miles    
Events      
T = Trace of Precipitation, MM = Missing Value Source: NWS Daily Summary

Daily Weather History Graph

Daily Weather History Graph

Search for Another Location

Airport or City:

Trip Planner

Search our weather history database for the weather conditions in past years. The results will help you decide how hot, cold, wet, or windy it might be!

Date:

Astronomy

Dec. 03, 2013 Rise Set
Actual Time 7:07 AM EST 4:15 PM EST
Civil Twilight 6:35 AM EST 4:48 PM EST
Nautical Twilight 5:59 AM EST 5:23 PM EST
Astronomical Twilight 5:24 AM EST 5:58 PM EST
Moon 7:33 AM EST (12/3) 5:17 PM EST (12/3)
Length of Visible Light 10h 13m
Length of Day
9h 08m
New Moon, 1% of the Moon is Illuminated
Dec 3
New Moon
Dec 9
First Quarter
Dec 17
Full
Dec 25
Last Quarter
Jan 1
New

Hourly Weather History & Observations

Time (EST) Temp. Windchill Dew Point Humidity Pressure Visibility Wind Dir Wind Speed Gust Speed Precip Events Conditions
12:15 AM 33.8 °F 30.8 °F 30.2 °F 87% 29.90 in 10.0 mi SE 3.5 mph - N/A   Overcast
12:35 AM 30.2 °F 26.7 °F 30.2 °F 100% 29.90 in 10.0 mi SE 3.5 mph - N/A   Scattered Clouds
12:55 AM 30.2 °F 22.6 °F 28.4 °F 93% 29.90 in 10.0 mi SE 8.1 mph - N/A   Clear
1:15 AM 30.2 °F 23.4 °F 28.4 °F 93% 29.89 in 10.0 mi SSE 6.9 mph - N/A   Clear
1:35 AM 30.2 °F 25.4 °F 28.4 °F 93% 29.90 in 5.0 mi SSE 4.6 mph - N/A   Clear
1:55 AM 30.2 °F 22.6 °F 28.4 °F 93% 29.90 in 10.0 mi SE 8.1 mph - N/A   Clear
2:15 AM 30.2 °F 24.3 °F 30.2 °F 100% 29.91 in 10.0 mi SE 5.8 mph - N/A   Clear
2:35 AM 30.2 °F 22.6 °F 28.4 °F 93% 29.91 in 10.0 mi SE 8.1 mph - N/A   Scattered Clouds
2:55 AM 30.2 °F - 28.4 °F 93% 29.91 in 10.0 mi Calm Calm - N/A   Partly Cloudy
3:15 AM 28.4 °F - 28.4 °F 100% 29.91 in 3.0 mi Calm Calm - N/A   Clear
3:35 AM 28.4 °F 24.6 °F 26.6 °F 93% 29.91 in 10.0 mi South 3.5 mph - N/A   Clear
3:55 AM 28.4 °F 23.3 °F 28.4 °F 100% 29.91 in 1.8 mi SSE 4.6 mph - N/A   Mostly Cloudy
4:15 AM 28.4 °F 20.4 °F 26.6 °F 93% 29.91 in 10.0 mi SE 8.1 mph - N/A   Partly Cloudy
4:35 AM 28.4 °F 22.2 °F 26.6 °F 93% 29.90 in 10.0 mi SE 5.8 mph - N/A   Mostly Cloudy
4:55 AM 28.4 °F 23.3 °F 26.6 °F 93% 29.90 in 10.0 mi SE 4.6 mph - N/A   Mostly Cloudy
5:15 AM 28.4 °F 19.1 °F 26.6 °F 93% 29.90 in 10.0 mi ESE 10.4 mph - N/A   Mostly Cloudy
5:35 AM 28.4 °F 21.2 °F 26.6 °F 93% 29.90 in 10.0 mi ESE 6.9 mph - N/A   Mostly Cloudy
5:55 AM 28.4 °F 22.2 °F 26.6 °F 93% 29.90 in 10.0 mi ESE 5.8 mph - N/A   Scattered Clouds
6:15 AM 28.4 °F 22.2 °F 26.6 °F 93% 29.90 in 10.0 mi SE 5.8 mph - N/A   Mostly Cloudy
6:35 AM 28.4 °F - 26.6 °F 93% 29.91 in 10.0 mi Calm Calm - N/A   Overcast
6:55 AM 28.4 °F - 26.6 °F 93% 29.91 in 10.0 mi Calm Calm - N/A   Overcast
7:15 AM 28.4 °F - 26.6 °F 93% 29.91 in 10.0 mi Calm Calm - N/A   Overcast
7:35 AM 28.4 °F 24.6 °F 26.6 °F 93% 29.91 in 10.0 mi SE 3.5 mph - N/A   Scattered Clouds
7:55 AM 28.4 °F 23.3 °F 24.8 °F 86% 29.91 in 10.0 mi SE 4.6 mph - N/A   Mostly Cloudy
8:15 AM 28.4 °F 24.6 °F 26.6 °F 93% 29.91 in 10.0 mi South 3.5 mph - N/A   Overcast
8:35 AM 28.4 °F 21.2 °F 26.6 °F 93% 29.92 in 8.0 mi SE 6.9 mph - N/A   Partly Cloudy
8:55 AM 30.2 °F 24.3 °F 26.6 °F 86% 29.92 in 10.0 mi SSE 5.8 mph - N/A   Clear
9:15 AM 30.2 °F 25.4 °F 28.4 °F 93% 29.92 in 10.0 mi SSW 4.6 mph - N/A   Scattered Clouds
9:35 AM 32.0 °F 28.7 °F 30.2 °F 93% 29.92 in 10.0 mi South 3.5 mph - N/A   Mostly Cloudy
9:55 AM 32.0 °F - 30.2 °F 93% 29.92 in 10.0 mi Calm Calm - N/A   Mostly Cloudy
10:15 AM 33.8 °F - 30.2 °F 87% 29.92 in 10.0 mi Calm Calm - N/A   Scattered Clouds
10:35 AM 35.6 °F - 32.0 °F 87% 29.91 in 10.0 mi Calm Calm - N/A   Clear
10:55 AM 35.6 °F - 32.0 °F 87% 29.91 in 10.0 mi Calm Calm - N/A   Clear
11:15 AM 35.6 °F - 32.0 °F 87% 29.91 in 9.0 mi Calm Calm - N/A   Clear
11:35 AM 37.4 °F - 33.8 °F 87% 29.90 in 10.0 mi Calm Calm - N/A   Clear
11:55 AM 37.4 °F - 32.0 °F 81% 29.90 in 10.0 mi Calm Calm - N/A   Partly Cloudy
12:15 PM 37.4 °F - 33.8 °F 87% 29.90 in 10.0 mi Calm Calm - N/A   Mostly Cloudy
12:35 PM 39.2 °F - 33.8 °F 81% 29.89 in 10.0 mi Calm Calm - N/A   Overcast
12:55 PM 39.2 °F - 33.8 °F 81% 29.88 in 10.0 mi Calm Calm - N/A   Mostly Cloudy
1:15 PM 39.2 °F - 33.8 °F 81% 29.88 in 10.0 mi Calm Calm - N/A   Partly Cloudy
1:35 PM 41.0 °F 39.0 °F 33.8 °F 76% 29.88 in 10.0 mi NNW 3.5 mph - N/A   Clear
1:55 PM 41.0 °F 37.1 °F 33.8 °F 76% 29.88 in 10.0 mi NNW 5.8 mph - N/A   Clear
2:15 PM 41.0 °F 38.0 °F 33.8 °F 76% 29.88 in 10.0 mi North 4.6 mph - N/A   Clear
2:35 PM 39.2 °F 35.9 °F 32.0 °F 75% 29.88 in 10.0 mi NNW 4.6 mph - N/A   Clear
2:55 PM 39.2 °F 37.0 °F 32.0 °F 75% 29.88 in 10.0 mi North 3.5 mph - N/A   Clear
3:15 PM 39.2 °F 37.0 °F 30.2 °F 70% 29.89 in 10.0 mi WNW 3.5 mph - N/A   Clear
3:35 PM 39.2 °F 37.0 °F 32.0 °F 75% 29.90 in 10.0 mi NW 3.5 mph - N/A   Scattered Clouds
3:55 PM 39.2 °F 37.0 °F 30.2 °F 70% 29.90 in 10.0 mi NNW 3.5 mph - N/A   Overcast
4:15 PM 39.2 °F 35.9 °F 30.2 °F 70% 29.91 in 10.0 mi NW 4.6 mph - N/A   Overcast
4:35 PM 39.2 °F 35.9 °F 30.2 °F 70% 29.92 in 10.0 mi North 4.6 mph - N/A   Overcast
4:55 PM 37.4 °F 33.8 °F 32.0 °F 81% 29.93 in 10.0 mi North 4.6 mph - N/A   Overcast
5:15 PM 37.4 °F 32.8 °F 32.0 °F 81% 29.93 in 10.0 mi North 5.8 mph - N/A   Overcast
5:35 PM 37.4 °F 32.8 °F 32.0 °F 81% 29.93 in 10.0 mi North 5.8 mph - N/A   Overcast
5:55 PM 37.4 °F 33.8 °F 32.0 °F 81% 29.93 in 10.0 mi North 4.6 mph - N/A   Overcast
6:15 PM 37.4 °F 34.9 °F 32.0 °F 81% 29.94 in 10.0 mi NNW 3.5 mph - N/A   Overcast
6:35 PM 35.6 °F 31.7 °F 32.0 °F 87% 29.95 in 9.0 mi NNW 4.6 mph - N/A   Overcast
6:55 PM 35.6 °F 30.7 °F 30.2 °F 81% 29.95 in 10.0 mi NNW 5.8 mph - N/A   Overcast
7:15 PM 35.6 °F 31.7 °F 30.2 °F 81% 29.95 in 8.0 mi North 4.6 mph - N/A   Overcast
7:35 PM 35.6 °F 30.7 °F 30.2 °F 81% 29.95 in 8.0 mi North 5.8 mph - N/A   Overcast
7:55 PM 33.8 °F 29.6 °F 30.2 °F 87% 29.95 in 6.0 mi NNW 4.6 mph - N/A   Overcast
8:15 PM 33.8 °F 29.6 °F 32.0 °F 93% 29.95 in 5.0 mi North 4.6 mph - N/A   Overcast
8:35 PM 33.8 °F 28.6 °F 30.2 °F 87% 29.95 in 5.0 mi North 5.8 mph - N/A   Overcast
8:55 PM 33.8 °F 29.6 °F 30.2 °F 87% 29.95 in 5.0 mi North 4.6 mph - N/A   Overcast
9:15 PM 33.8 °F 29.6 °F 30.2 °F 87% 29.96 in 6.0 mi North 4.6 mph - N/A   Overcast
9:35 PM 33.8 °F 29.6 °F 30.2 °F 87% 29.96 in 7.0 mi North 4.6 mph - N/A   Overcast
9:55 PM 32.0 °F 27.5 °F 28.4 °F 87% 29.96 in 8.0 mi NNE 4.6 mph - N/A   Overcast
10:15 PM 32.0 °F 26.4 °F 28.4 °F 87% 29.96 in 10.0 mi NNE 5.8 mph - N/A   Overcast
10:35 PM 32.0 °F 26.4 °F 26.6 °F 80% 29.97 in 10.0 mi NNE 5.8 mph - N/A   Overcast
10:55 PM 32.0 °F - 26.6 °F 80% 29.97 in 10.0 mi North - - N/A   Overcast
11:15 PM 32.0 °F 28.7 °F 26.6 °F 80% 29.98 in 10.0 mi North 3.5 mph - N/A   Overcast
11:35 PM 30.2 °F 25.4 °F 24.8 °F 80% 29.97 in 10.0 mi North 4.6 mph - N/A   Overcast
11:55 PM 30.2 °F - 26.6 °F 86% 29.97 in 10.0 mi Calm Calm - N/A   Mostly Cloudy